, FL

(GMT )
Crestview

Weather History for KEGI - June, 2013

Change the Weather History Date:

Saturday, June 1, 2013

  Actual Average Record
Temperature  
Mean Temperature 80 °F -  
Max Temperature 88 °F - - ()
Min Temperature 71 °F - - ()
Cooling Degree Days 14    
Growing Degree Days 30 (Base 50)    
Moisture  
Dew Point 70 °F    
Average Humidity 75    
Maximum Humidity 98    
Minimum Humidity 55    
Precipitation  
Precipitation 0.00 in - - ()
Sea Level Pressure  
Sea Level Pressure 30.02 in    
Wind  
Wind Speed 7 mph (SE)    
Max Wind Speed 16 mph    
Max Gust Speed 22 mph    
Visibility 10 miles    
Events      
Averages and records for this station are not official NWS values.
T = Trace of Precipitation, MM = Missing Value Source: NWS Daily Summary

Daily Weather History Graph

Daily Weather History Graph

Search for Another Location

Airport or City:

Trip Planner

Search our weather history database for the weather conditions in past years. The results will help you decide how hot, cold, wet, or windy it might be!

Date:

Astronomy

Jun. 01, 2013 Rise Set
Actual Time 5:43 AM CDT 7:44 PM CDT
Civil Twilight 5:16 AM CDT 8:11 PM CDT
Nautical Twilight 4:43 AM CDT 8:44 PM CDT
Astronomical Twilight 4:08 AM CDT 9:20 PM CDT
Moon 1:13 AM CDT (6/1) 1:36 PM CDT (6/1)
Length of Visible Light 14h 54m
Length of Day
14h 00m
Last Quarter, 40% of the Moon is Illuminated
Jun 1
Last Quarter
Jun 8
New
Jun 16
First Quarter
Jun 23
Full
Jun 29
Last Quarter

Hourly Weather History & Observations

Time (CDT) Temp. Heat Index Dew Point Humidity Pressure Visibility Wind Dir Wind Speed Gust Speed Precip Events Conditions
12:58 AM 73.9 °F - 69.3 °F 85% 30.01 in 10.0 mi SE 5.8 mph - N/A   Clear
1:58 AM 73.8 °F - 69.1 °F 85% 30.01 in 10.0 mi ESE 3.5 mph - N/A   Clear
2:38 AM 71.6 °F - 69.8 °F 94% 30.01 in 10.0 mi East 2.3 mph - N/A   Mostly Cloudy
2:43 AM 71.6 °F - 69.8 °F 94% 30.01 in 10.0 mi ENE 2.3 mph - N/A   Mostly Cloudy
2:58 AM 71.8 °F - 69.4 °F 92% 30.01 in 10.0 mi NE 3.5 mph - N/A   Overcast
3:58 AM 71.4 °F - 69.8 °F 95% 30.01 in 10.0 mi NNE 2.3 mph - N/A   Mostly Cloudy
4:58 AM 72.9 °F - 69.4 °F 89% 30.01 in 10.0 mi East 6.9 mph - N/A   Scattered Clouds
5:58 AM 73.0 °F - 69.6 °F 89% 30.02 in 10.0 mi East 4.6 mph - N/A   Partly Cloudy
6:58 AM 75.7 °F - 70.5 °F 84% 30.02 in 10.0 mi ESE 8.1 mph - N/A   Overcast
7:58 AM 77.9 °F - 71.1 °F 79% 30.04 in 10.0 mi SE 10.4 mph - N/A   Scattered Clouds
8:48 AM 80.6 °F 84.6 °F 71.6 °F 74% 30.03 in 10.0 mi SE 10.4 mph - N/A   Mostly Cloudy
8:58 AM 81.0 °F 84.7 °F 70.9 °F 71% 30.04 in 10.0 mi SSE 13.8 mph 19.6 mph N/A   Mostly Cloudy
9:23 AM 80.6 °F 84.6 °F 71.6 °F 74% 30.04 in 10.0 mi SE 8.1 mph - N/A   Mostly Cloudy
9:58 AM 82.0 °F 86.1 °F 70.5 °F 68% 30.04 in 10.0 mi SSE 12.7 mph 20.7 mph N/A   Scattered Clouds
10:58 AM 85.6 °F 90.1 °F 69.8 °F 59% 30.04 in 10.0 mi South 15.0 mph 20.7 mph N/A   Scattered Clouds
11:58 AM 86.7 °F 91.4 °F 69.8 °F 57% 30.04 in 10.0 mi South 15.0 mph 21.9 mph N/A   Partly Cloudy
12:58 PM 84.9 °F 89.7 °F 70.5 °F 62% 30.04 in 10.0 mi SSE 13.8 mph - N/A   Mostly Cloudy
1:42 PM 86.0 °F 90.4 °F 69.8 °F 58% 30.03 in 10.0 mi SSE 12.7 mph 20.7 mph N/A   Scattered Clouds
1:44 PM 86.0 °F 90.4 °F 69.8 °F 58% 30.02 in 10.0 mi SSW 13.8 mph 20.7 mph N/A   Scattered Clouds
1:46 PM 86.0 °F 90.4 °F 69.8 °F 58% 30.02 in 10.0 mi SSW 13.8 mph 20.7 mph N/A   Scattered Clouds
1:58 PM 87.1 °F 91.3 °F 68.9 °F 55% 30.02 in 10.0 mi South 12.7 mph - N/A   Mostly Cloudy
2:58 PM 86.9 °F 91.0 °F 68.7 °F 55% 30.01 in 10.0 mi SSE 12.7 mph 17.3 mph N/A   Clear
3:58 PM 88.2 °F 93.3 °F 70.0 °F 55% 29.99 in 10.0 mi SSW 16.1 mph 21.9 mph N/A   Scattered Clouds
4:58 PM 86.2 °F 89.7 °F 68.4 °F 55% 29.99 in 10.0 mi South 13.8 mph - N/A   Clear
5:58 PM 84.6 °F 87.9 °F 68.4 °F 58% 29.99 in 10.0 mi South 11.5 mph - N/A   Clear
6:58 PM 81.9 °F 85.4 °F 69.6 °F 66% 29.99 in 10.0 mi South 10.4 mph - N/A   Clear
7:58 PM 77.9 °F - 71.2 °F 80% 29.99 in 10.0 mi South 6.9 mph - N/A   Clear
8:58 PM 75.7 °F - 71.6 °F 87% 30.01 in 10.0 mi South 3.5 mph - N/A   Clear
9:58 PM 73.8 °F - 71.6 °F 93% 30.01 in 10.0 mi ENE 1.2 mph - N/A   Clear
10:58 PM 72.5 °F - 71.2 °F 96% 30.02 in 10.0 mi Calm Calm - N/A   Clear
11:58 PM 73.2 °F - 72.7 °F 98% 29.99 in 3.0 mi SE 4.6 mph - N/A   Clear